Location: Radomski Observatory
(40.2854°N, 79.5145°W)
Time: 07:12:31
(UTC-04:00)

Daily predictions for brighter satellites

Satellite Brightness Start Highest point End
(mag) Time Altitude Azimuth Time Altitude Azimuth Time Altitude Azimuth
Cosmos 1980 Rocket 4.0 21:13:56 10° NW 21:18:51 31° WSW 21:23:45 10° SSW
Cosmos 2360 Rocket 3.0 21:14:21 10° N 21:19:38 38° ENE 21:24:52 10° SE
In-Cosmos 22 4.3 21:14:53 10° S 21:20:37 77° E 21:26:23 10° NNE
SL-16 R/B 2.3 21:15:13 10° NNW 21:20:56 83° WSW 21:26:35 10° SSE
YAOGAN 11 4.2 21:17:49 10° SSE 21:22:07 84° WSW 21:26:31 10° NNW
SJ-11-01 4.4 21:17:47 10° SSE 21:22:27 70° ENE 21:27:11 10° N
Envisat 3.5 21:17:48 10° SE 21:22:35 43° ENE 21:27:23 10° N
FENGYUN 3A 4.4 21:19:29 10° S 21:24:47 56° W 21:30:07 10° NNW
ERS-1 Rocket 3.0 21:21:32 10° SSE 21:26:33 81° ENE 21:31:37 10° N
Cosmos 1437 4.2 21:26:14 10° SE 21:28:50 22° E 21:31:26 10° NE
Cosmos 1908 3.7 21:27:05 10° N 21:30:50 44° E 21:34:35 10° SSE
H-2A R/B 2.2 21:29:21 10° SSE 21:33:50 70° ENE 21:38:21 10° N
Cosmos 1328 Rocket 3.8 21:32:10 10° NNW 21:36:37 73° W 21:41:01 10° S
Cosmos 1777 Rocket 4.0 21:34:00 10° SSW 21:39:16 86° ESE 21:44:33 10° NNE
DELTA 2 R/B (1) 3.6 21:35:41 10° W 21:41:13 72° SSW 21:46:44 10° ESE
NOSS 3-1 (C) 4.1 21:36:34 10° S 21:41:35 31° ESE 21:46:59 10° NE
Cosmos 1674 2.8 21:39:01 10° S 21:42:47 60° E 21:46:36 10° NNE
ATLAS CENTAUR R/B 3.7 21:42:43 10° WNW 21:45:56 20° WSW 21:48:58 10° SSW
S3M 4.5 21:44:46 10° NNW 21:50:47 62° W 21:56:48 10° S
Cosmos 1939 Rocket 2.9 21:47:18 10° S 21:51:16 79° W 21:55:11 10° NNW
Cosmos 1833 4.2 21:47:09 10° SSW 21:52:52 87° ESE 21:58:34 10° NNE
Cosmos 1300 4.0 21:51:26 10° NNE 21:54:38 25° ENE 21:56:54 15° ESE
Cosmos 405 3.0 21:52:39 10° N 21:56:17 85° E 21:59:42 11° S
Cosmos 2333 Rocket 4.2 21:53:00 10° N 21:56:35 17° NE 22:00:10 10° E
CZ-2C R/B 2.1 21:55:54 10° SW 21:56:52 16° W 21:57:50 10° NW
Cosmos 1500 Rocket 4.3 21:53:37 10° SSW 21:57:54 54° W 22:02:14 10° N
Cosmos 1437 Rocket 3.3 21:57:22 10° NNW 22:01:08 56° W 22:04:54 10° S
H-2A R/B 3.7 21:58:30 11° ESE 22:02:07 21° ENE 22:06:01 10° NNE
Terra 3.7 22:00:12 10° E 22:03:01 16° ENE 22:05:52 10° NNE
YAOGAN 6 3.1 22:00:51 17° SE 22:03:25 45° ENE 22:06:54 10° N
COSMOS 2428 3.2 22:03:28 10° NNW 22:08:57 46° ENE 22:13:00 18° SE
Cosmos 1680 Rocket 3.5 22:04:49 10° NNW 22:10:05 85° ENE 22:14:23 16° SSE
CZ-4 SHROUD 3.2 22:08:08 16° S 22:10:31 81° WSW 22:13:40 10° NNW
CZ-4B R/B 3.7 22:07:31 10° NNE 22:12:44 57° E 22:17:49 10° S
Delta 2 Rocket 3.5 22:10:16 10° WSW 22:13:34 36° S 22:15:00 24° SE
Cosmos 2297 Rocket 4.1 22:13:15 11° E 22:13:37 11° E 22:14:52 10° E
SPOT 1/Viking Rocket 3.7 22:10:08 17° SSE 22:14:01 58° ENE 22:19:05 10° N
Cosmos 923 Rocket 4.3 22:09:03 10° NNW 22:14:13 67° WSW 22:18:47 13° S
OAO 2 Rocket 4.3 22:10:51 10° SW 22:15:19 28° SSE 22:18:12 17° ESE
MetOp-A 4.1 22:12:54 14° SSE 22:17:37 90° SW 22:23:00 10° NNW
Cosmos 2219 Rocket 3.4 22:16:22 10° N 22:21:16 30° ENE 22:24:46 16° ESE
CZ-4 R/B 4.1 22:17:09 10° NNE 22:21:57 48° E 22:25:20 18° SSE
ARGOS 3.4 22:18:17 19° SE 22:22:05 58° ENE 22:27:23 10° N
Cosmos 1898 Rocket 3.8 22:19:08 15° S 22:23:06 44° ESE 22:28:01 10° NNE
FALCON 9 R/B 4.4 21:50:48 10° WSW 22:25:31 67° S 22:33:30 10° E
Cosmos 1328 4.0 22:22:12 10° SSW 22:26:07 68° W 22:30:05 10° N
Cosmos 2150 Rocket 4.3 22:22:49 13° S 22:27:24 50° ESE 22:32:41 10° NNE
CZ-4C R/B 4.1 22:26:40 24° ESE 22:27:50 30° ENE 22:30:56 10° N
Cosmos 2237 4.2 22:24:53 10° NNW 22:30:38 74° ENE 22:34:15 23° SSE
Cosmos 2151 3.8 22:28:12 10° SSW 22:32:16 49° W 22:36:22 10° N
USA 245 2.0 22:32:06 47° SSE 22:32:44 88° ENE 22:35:06 10° NNW
Sich 1 3.1 22:34:25 23° S 22:37:02 64° E 22:41:25 10° NNE
SL-08 RB Rocket 3.7 22:34:43 27° SSE 22:37:05 65° ENE 22:41:33 10° N
Cosmos 1633 Rocket 3.1 22:36:53 25° SSE 22:39:20 63° E 22:43:40 10° NNE
Cosmos 1726 2.1 22:37:49 10° N 22:41:36 74° E 22:43:05 35° SSE
Cosmos 2219 3.5 22:36:39 10° SSW 22:42:23 70° WNW 22:48:08 10° NNE
Tiangong 1 1.1 22:39:41 10° SW 22:42:38 51° SSE 22:42:38 51° SSE
DELTA 2 R/B(2) 3.4 22:41:46 10° W 22:43:33 76° SSW 22:43:33 76° SSW
NOSS 3-1 (A) 3.3 22:38:54 10° SSW 22:44:41 70° ESE 22:51:06 10° NE
SPOT 5 4.2 22:43:57 11° SSW 22:47:52 33° W 22:52:10 10° NNW
Cosmos 2315 Rocket 4.4 22:42:32 10° NNW 22:48:39 61° W 22:53:45 15° S
Cosmos 2333 4.2 22:44:11 10° NNW 22:49:56 79° ENE 22:52:56 30° SSE
Cosmos 1271 Rocket 2.9 22:46:50 10° N 22:50:37 57° ENE 22:51:39 41° SE
SL-14 R/B 3.3 22:48:33 23° SSW 22:50:53 77° W 22:54:54 10° N
Cosmos 1703 3.4 22:50:01 40° SSE 22:51:05 55° E 22:54:55 10° NNE
Cosmos 2237 Rocket 3.2 22:46:10 10° N 22:51:22 35° ENE 22:54:11 22° ESE
Cosmos 2058 3.8 22:49:04 11° SSW 22:52:46 47° W 22:56:45 10° N
Cosmos 1805 Rocket 4.3 22:50:01 11° SSW 22:54:08 51° W 22:58:29 10° N
Meteor 1-27 4.4 22:48:38 10° NNW 22:54:19 72° W 22:57:52 23° S
Cosmos 2082 4.3 22:52:45 30° SE 22:54:32 37° ESE 22:59:44 10° NE
USA 32 4.0 22:53:47 10° N 22:59:04 80° E 23:01:35 32° S
Iridium 2 3.6 23:01:05 49° SSE 23:01:56 69° E 23:05:46 10° N
COSMOS 2455 4.4 22:57:48 10° N 23:02:42 25° NE 23:06:26 14° E
Cosmos 2360 Rocket 3.6 22:58:38 10° NW 23:03:27 30° WSW 23:07:20 14° SSW
NOAA 11 4.5 23:01:59 25° S 23:05:09 62° WSW 23:10:35 10° NNW
Meteor 2-10 4.2 23:00:23 10° N 23:06:07 75° E 23:08:39 35° SSE
ATLAS 2AS CENTAUR R/B 3.3 23:03:26 26° SSE 23:07:09 44° ESE 23:14:35 10° NE
Meteor 1-4 Rocket 2.7 23:05:16 10° NNW 23:09:01 73° W 23:09:49 51° SSW
Nadezhda 1 Rocket 3.9 23:08:43 10° N 23:14:49 74° E 23:17:27 36° SSE
Cosmos 1626 2.1 23:20:38 64° E 23:20:41 64° E 23:24:25 10° NNE
IGS 5A 3.3 23:21:56 58° SSE 23:22:43 88° ENE 23:26:55 10° NNW
Cosmos 1937 Rocket 3.6 23:20:01 21° SSW 23:23:30 73° WNW 23:28:43 10° NNE
Cosmos 220 Rocket 4.2 23:22:01 31° SSW 23:24:00 70° WNW 23:28:27 10° NNE
Landsat 7 4.2 23:22:40 35° SSW 23:24:25 57° W 23:29:07 10° NNW
ATLAS 3B R/B 3.6 23:19:33 10° NNW 23:26:07 39° NE 23:30:02 21° E
Cosmos 1745 Rocket 4.1 23:22:21 25° SSW 23:26:09 76° W 23:32:22 10° N
DELTA 2 R/B (1) 4.4 23:22:23 10° W 23:27:15 32° SSW 23:27:37 31° SSW
Cosmos 2227 Rocket 2.1 23:27:04 35° S 23:29:30 77° ESE 23:35:11 10° NNE
Cosmos 1470 Rocket 3.6 23:28:46 46° SSW 23:29:56 72° W 23:34:16 10° N
Cosmos 292 Rocket 4.1 23:25:32 10° NNW 23:30:13 58° WSW 23:31:27 43° SSW
Cosmos 1933 Rocket 3.7 23:29:58 45° SSW 23:31:15 74° W 23:35:44 10° N
NOSS 3-1 (C) 4.5 23:26:28 10° WSW 23:32:07 45° NW 23:38:25 10° NNE
Cosmos 1709 Rocket 4.1 23:32:45 41° SE 23:34:32 56° E 23:40:29 10° NNE
Cosmos 1703 Rocket 4.4 23:30:48 10° N 23:34:47 34° ENE 23:35:00 34° E
Cosmos 990 Rocket 4.0 23:33:45 34° SSW 23:36:01 79° WNW 23:41:12 10° NNE
Cosmos 2221 Rocket 4.4 23:35:39 10° N 23:39:56 38° ENE 23:40:13 37° E
Spot 2 4.5 23:34:50 10° N 23:39:57 78° WNW 23:41:41 41° SSW
Terra 2.2 23:39:02 43° SSW 23:40:17 56° W 23:44:59 10° NNW
Spot 4 3.9 23:39:31 52° S 23:40:39 74° WSW 23:45:32 10° NNW
H-2A R/B 2.6 23:39:08 36° SSW 23:41:03 54° W 23:46:23 10° NNW
Cosmos 2333 Rocket 2.2 23:35:48 10° NNW 23:41:35 83° WSW 23:43:13 49° SSE
Cosmos 1346 4.3 23:42:11 41° NW 23:42:11 41° NW 23:44:39 10° N
SL-16 R/B 3.0 23:38:43 10° N 23:44:04 41° ENE 23:45:52 32° E
Cosmos 1269 Rocket 4.4 23:41:46 10° N 23:46:57 51° ENE 23:48:05 43° ESE
NOSS 0 Rocket 4.0 23:41:18 10° NNW 23:47:24 66° WSW 23:49:18 44° S
COSMOS 2428 4.3 23:48:24 10° NW 23:52:52 24° WSW 23:55:01 19° SW
Cosmos 1455 2.8 23:49:29 10° NNW 23:53:09 47° W 23:53:10 47° W
